Regional Weather Roundup
Issued by NWS

Home | Current Version | Previous Version | Graphics & Text | Print | Product List | Glossary On
Versions: 1 2 3 4 5 6 7 8 9 10 11 12 13 14 15 16 17 18 19 20 21 22 23 24 25 26 27 28 29 30 31 32 33 34 35 36 37 38 39 40 41 42 43 44 45 46 47 48 49 50
000
ASUS43 KDTX 040910
RWRMI
MICHIGAN HOURLY REGIONAL WEATHER ROUNDUP
NATIONAL WEATHER SERVICE DETROIT/PONTIAC MI
500 AM EDT WED MAY 04 2016

NOTE: "FAIR" INDICATES FEW OR NO CLOUDS BELOW 12,000 FEET WITH NO
SIGNIFICANT WEATHER AND/OR OBSTRUCTION TO VISIBILITY.

MIZ047>049-052>055-059>063-066>070-074>076-081>083-041000-
SOUTHEAST LOWER MICHIGAN

CITY           SKY/WX    TMP DP  RH WIND       PRES   REMARKS
ADRIAN         CLOUDY    51  44  77 SW9       29.65F
ALMA           CLOUDY    50  39  64 SW6       29.58F
ANN ARBOR      LGT RAIN  48  44  86 W3        29.64F
BAD AXE        CLOUDY    49  43  78 S5        29.62S
CARO           RAIN      52  42  69 SW10G21   29.60F
DETROIT CITY   CLOUDY    52  42  69 S9        29.65F
DETROIT        CLOUDY    50  43  77 S3        29.66F
FLINT          CLOUDY    53  42  66 S9        29.61F
GROSSE ILE     CLOUDY    54  46  76 S7        29.65F
HILLSDALE      CLOUDY    52  39  61 SW7       29.63F
HOWELL         LGT RAIN  53  41  63 S9        29.61F

CITY           SKY/WX    TMP DP  RH WIND       PRES   REMARKS
JACKSON        CLOUDY    51  45  79 S7        29.62F
LAMBERTVILLE   CLOUDY    51  45  80 S8        29.66F
LANSING        CLOUDY    51  42  71 S8        29.59F
LAPEER         LGT RAIN  51  42  70 W7        29.64S
MASON          CLOUDY    52  43  70 S5        29.60F
MONROE         CLOUDY    50  46  84 S6        29.65F
MT. CLEMENS    CLOUDY    47  46  95 S8        29.63F
PONTIAC        CLOUDY    51  42  71 CALM      29.63F
PORT HOPE        N/A     50  42  74 CALM      29.60F
PORT HURON     MOCLDY    46  45  93 S3        29.65F
TRI CITIES     CLOUDY    55  39  54 S7        29.59F
MIDLAND        FAIR      46  38  75 CALM      29.58F
TROY           CLOUDY    52  42  70 S5        29.66F
SAGINAW HB     CLOUDY    54  39  58 S8        29.59F
$$
MIZ043>046-050>051-056>058-064>065-071>073-077>080-041000-
SOUTHWEST LOWER MICHIGAN

CITY           SKY/WX    TMP DP  RH WIND       PRES   REMARKS
BATTLE CREEK   LGT RAIN  50  45  83 SW9       29.61F
BENTON HARBOR  LGT RAIN  50  45  83 SW7       29.59F
BIG RAPIDS     LGT RAIN  47  44  89 NW7       29.58S
COLDWATER      RAIN      53  43  68 SW16G28   29.63S
FREMONT        RAIN      47  47 100 N10       29.60R
HOLLAND        CLOUDY    49  42  77 W5        29.59F
GRAND RAPIDS   CLOUDY    54  43  66 SW9       29.57F
IONIA          CLOUDY    53  41  64 S9        29.57S
KALAMAZOO      CLOUDY    52  45  77 S5        29.61F
LUDINGTON      LGT RAIN  41  40  96 N14       29.64S
MARSHALL       CLOUDY    51  44  76 S6        29.60F
MOUNT PLEASANT CLOUDY    47  41  79 CALM      29.58S
MUSKEGON       RAIN      48  44  86 MISG      29.61R FOG
SOUTH HAVEN    CLOUDY    52  44  75 SW7       29.58F
$$
MIZ016>042-041000-
NORTHERN LOWER MICHIGAN

CITY           SKY/WX    TMP DP  RH WIND       PRES   REMARKS
ALPENA         CLOUDY    46  43  89 CALM      29.61F
BEAVER ISLAND  LGT RAIN  41  40  97 N7        29.65S
BELLAIRE       LGT SNOW  44  42  93 CALM      29.63R
CADILLAC       LGT RAIN  46  44  95 NW8       29.59S
CHARLEVOIX     LGT RAIN  41  41 100 N10       29.66R
FRANKFORT      CLOUDY    41  39  94 N10G16    29.65S
GAYLORD        RAIN      46  44  93 CALM      29.60S FOG
GRAYLING       LGT RAIN  46  45  93 CALM      29.60F
HARBOR SPRINGS RAIN      41  41 100 CALM      29.62S VSB 1/2
HOUGHTON LAKE  LGT RAIN  47  45  93 CALM      29.59F
MANISTEE       CLOUDY    43  37  81 N10       29.65R
OSCODA         CLOUDY    45  41  85 E6        29.60F
PELLSTON       RAIN      46  44  93 NW6       29.62S FOG
ROGERS CITY    CLOUDY    44  42  93 CALM      29.62F
TRAVERSE CITY  LGT RAIN  43  40  89 N6        29.62F
$$
MIZ007>008-015-041000-
EASTERN UPPER MICHIGAN

CITY           SKY/WX    TMP DP  RH WIND       PRES   REMARKS
KINROSS          N/A     39  39 100 NW13      29.62F WCI  32
MACKINAC ISLAN LGT RAIN  42  42 100 N9        29.62R
NEWBERRY       CLOUDY    40  39  97 N7        29.66S WCI  35
S. S. MARIE    CLOUDY    42  40  92 NW6       29.63S
MUNISING         N/A     40  36  86 N13       29.73R WCI  32
$$
MIZ004>006-011>014-085-041000-
CENTRAL UPPER MICHIGAN

CITY           SKY/WX    TMP DP  RH WIND       PRES   REMARKS
MANISTIQUE     CLOUDY    40  38  93 N13       29.68R WCI  33
ESCANABA       PTCLDY    41  36  81 N12G21    29.71S
MENOMINEE      PTCLDY    40  36  86 N9        29.74  WCI  34
SAWYER-GWINN   DRIZZLE   37  34  89 N20G28    29.72S WCI  27
$$
MIZ001>003-009>011-084-041000-
WESTERN UPPER MICHIGAN

CITY           SKY/WX    TMP DP  RH WIND       PRES   REMARKS
IRON MOUNTAIN  CLOUDY    41  35  79 N13       29.73S
HOUGHTON       CLOUDY    38  34  85 N13       29.81R WCI  30
COPPER HARBOR    N/A     38  36  92 NE13      29.80R WCI  30
IRONWOOD         N/A     41  36  81 NW9       29.82R
$$

ABBREVIATIONS USED IN REMARKS
   TC - TEMPERATURE IN CELSIUS
  WCI - WIND CHILL INDEX
   HX - HEAT INDEX
  VSB - VISIBILITY





USA.gov is the U.S. government's official web portal to all federal, state and local government web resources and services.